Time,TemperatureF,DewpointF,PressureIn,WindDirection,WindDirectionDegrees,WindSpeedMPH,WindSpeedGustMPH,Humidity,HourlyPrecipIn,Conditions,Clouds,dailyrainin,SoftwareType,DateUTC
2013-11-03 00:01:00,51.8,37.9,30.13,South,180,11.4,-999.0,59,-99.99,,,0.00,Acu-Link.com,2013-11-03 05:01:00,
2013-11-03 00:16:00,51.1,37.7,30.12,ESE,112,9.4,-999.0,60,-99.99,,,0.00,Acu-Link.com,2013-11-03 05:16:00,
2013-11-03 00:31:00,50.5,38.0,30.11,ESE,112,6.7,-999.0,62,-99.99,,,0.00,Acu-Link.com,2013-11-03 05:31:00,
2013-11-03 00:46:00,50.4,38.2,30.11,SSE,157,6.7,-999.0,63,-99.99,,,0.00,Acu-Link.com,2013-11-03 05:46:00,
2013-11-03 01:01:00,49.6,38.4,30.11,SSE,157,7.4,-999.0,65,-99.99,,,0.00,Acu-Link.com,2013-11-03 06:01:00,
2013-11-03 01:16:00,48.7,38.3,30.11,SSE,157,5.8,-999.0,67,-99.99,,,0.00,Acu-Link.com,2013-11-03 06:16:00,
2013-11-03 01:31:00,48.9,38.1,30.10,SSE,157,6.7,-999.0,66,-99.99,,,0.00,Acu-Link.com,2013-11-03 06:31:00,
2013-11-03 01:46:00,49.1,38.2,30.11,SSE,157,8.9,-999.0,66,-99.99,,,0.00,Acu-Link.com,2013-11-03 06:46:00,
2013-11-03 01:01:00,48.9,38.1,30.11,SE,135,6.7,-999.0,66,-99.99,,,0.00,Acu-Link.com,2013-11-03 07:01:00,
2013-11-03 01:17:00,48.4,37.9,30.10,SE,135,7.4,-999.0,67,-99.99,,,0.00,Acu-Link.com,2013-11-03 07:17:00,
2013-11-03 01:32:00,47.7,38.0,30.10,SE,135,8.9,-999.0,69,-99.99,,,0.00,Acu-Link.com,2013-11-03 07:32:00,
2013-11-03 01:47:00,47.7,38.0,30.10,SE,135,8.3,-999.0,69,-99.99,,,0.00,Acu-Link.com,2013-11-03 07:47:00,
2013-11-03 02:02:00,47.3,37.7,30.10,SE,135,5.8,-999.0,69,-99.99,,,0.00,Acu-Link.com,2013-11-03 08:02:00,
2013-11-03 02:17:00,46.9,37.7,30.10,SE,135,6.7,-999.0,70,-99.99,,,0.00,Acu-Link.com,2013-11-03 08:17:00,
2013-11-03 02:32:00,46.4,37.9,30.10,SSE,157,6.7,-999.0,72,-99.99,,,0.00,Acu-Link.com,2013-11-03 08:32:00,
2013-11-03 02:47:00,46.0,37.9,30.09,SE,135,6.3,-999.0,73,-99.99,,,0.00,Acu-Link.com,2013-11-03 08:47:00,
2013-11-03 03:02:00,45.5,37.7,30.09,SSE,157,4.7,-999.0,74,-99.99,,,0.00,Acu-Link.com,2013-11-03 09:02:00,
2013-11-03 03:17:00,45.5,37.7,30.08,SSE,157,5.1,-999.0,74,-99.99,,,0.00,Acu-Link.com,2013-11-03 09:17:00,
2013-11-03 03:32:00,44.8,37.7,30.07,SE,135,6.3,-999.0,76,-99.99,,,0.00,Acu-Link.com,2013-11-03 09:32:00,
2013-11-03 03:47:00,44.2,37.5,30.07,SE,135,4.3,-999.0,77,-99.99,,,0.00,Acu-Link.com,2013-11-03 09:47:00,
2013-11-03 04:02:00,44.1,37.6,30.07,SSE,157,6.3,-999.0,78,-99.99,,,0.00,Acu-Link.com,2013-11-03 10:02:00,
2013-11-03 04:17:00,43.9,37.5,30.06,SSE,157,7.8,-999.0,78,-99.99,,,0.00,Acu-Link.com,2013-11-03 10:17:00,
2013-11-03 04:32:00,43.7,37.3,30.06,SE,135,5.1,-999.0,78,-99.99,,,0.00,Acu-Link.com,2013-11-03 10:32:00,
2013-11-03 04:48:00,43.5,37.4,30.06,SE,135,4.7,-999.0,79,-99.99,,,0.00,Acu-Link.com,2013-11-03 10:48:00,
2013-11-03 05:03:00,43.5,37.4,30.07,SE,135,6.3,-999.0,79,-99.99,,,0.00,Acu-Link.com,2013-11-03 11:03:00,
2013-11-03 05:18:00,43.0,37.2,30.06,ESE,112,4.7,-999.0,80,-99.99,,,0.00,Acu-Link.com,2013-11-03 11:18:00,
2013-11-03 05:33:00,42.6,37.2,30.06,SE,135,5.8,-999.0,81,-99.99,,,0.00,Acu-Link.com,2013-11-03 11:33:00,
2013-11-03 05:48:00,41.9,37.1,30.06,SE,135,4.3,-999.0,83,-99.99,,,0.00,Acu-Link.com,2013-11-03 11:48:00,
2013-11-03 06:03:00,41.9,37.1,30.06,ESE,112,4.3,-999.0,83,-99.99,,,0.00,Acu-Link.com,2013-11-03 12:03:00,
2013-11-03 06:18:00,41.9,37.1,30.05,ESE,112,6.7,-999.0,83,-99.99,,,0.00,Acu-Link.com,2013-11-03 12:18:00,
2013-11-03 06:33:00,41.9,37.1,30.05,SE,135,5.1,-999.0,83,-99.99,,,0.00,Acu-Link.com,2013-11-03 12:33:00,
2013-11-03 06:49:00,41.5,37.4,30.05,SE,135,4.7,-999.0,85,-99.99,,,0.00,Acu-Link.com,2013-11-03 12:49:00,
2013-11-03 07:04:00,41.0,37.1,30.04,ESE,112,6.7,-999.0,86,-99.99,,,0.00,Acu-Link.com,2013-11-03 13:04:00,
2013-11-03 07:19:00,42.1,38.2,30.04,SE,135,7.4,-999.0,86,-99.99,,,0.00,Acu-Link.com,2013-11-03 13:19:00,
2013-11-03 07:34:00,43.7,38.6,30.04,SSE,157,4.7,-999.0,82,-99.99,,,0.00,Acu-Link.com,2013-11-03 13:34:00,
2013-11-03 07:49:00,45.7,39.2,30.03,South,180,5.8,-999.0,78,-99.99,,,0.00,Acu-Link.com,2013-11-03 13:49:00,
2013-11-03 08:04:00,46.0,38.9,30.04,SSE,157,7.8,-999.0,76,-99.99,,,0.00,Acu-Link.com,2013-11-03 14:04:00,
2013-11-03 08:19:00,47.5,39.6,30.04,SE,135,9.8,-999.0,74,-99.99,,,0.00,Acu-Link.com,2013-11-03 14:19:00,
2013-11-03 08:35:00,48.6,40.3,30.04,SSE,157,6.3,-999.0,73,-99.99,,,0.00,Acu-Link.com,2013-11-03 14:35:00,
2013-11-03 08:50:00,49.3,39.9,30.05,SE,135,6.3,-999.0,70,-99.99,,,0.00,Acu-Link.com,2013-11-03 14:50:00,
2013-11-03 09:05:00,50.4,40.6,30.05,SSE,157,7.8,-999.0,69,-99.99,,,0.00,Acu-Link.com,2013-11-03 15:05:00,
2013-11-03 09:20:00,52.7,40.9,30.05,South,180,10.3,-999.0,64,-99.99,,,0.00,Acu-Link.com,2013-11-03 15:20:00,
2013-11-03 09:35:00,55.8,41.7,30.05,South,180,16.6,-999.0,59,-99.99,,,0.00,Acu-Link.com,2013-11-03 15:35:00,
2013-11-03 09:50:00,55.9,41.4,30.05,SSE,157,8.3,-999.0,58,-99.99,,,0.00,Acu-Link.com,2013-11-03 15:50:00,
2013-11-03 10:05:00,57.9,42.3,30.03,SE,135,14.1,-999.0,56,-99.99,,,0.00,Acu-Link.com,2013-11-03 16:05:00,
2013-11-03 10:20:00,60.3,42.1,30.02,South,180,12.5,-999.0,51,-99.99,,,0.00,Acu-Link.com,2013-11-03 16:20:00,
2013-11-03 10:35:00,59.5,40.9,30.01,SSE,157,18.6,-999.0,50,-99.99,,,0.00,Acu-Link.com,2013-11-03 16:35:00,
2013-11-03 10:50:00,59.7,41.0,30.01,SSE,157,15.0,-999.0,50,-99.99,,,0.00,Acu-Link.com,2013-11-03 16:50:00,
2013-11-03 11:06:00,60.6,41.9,30.01,SSW,202,8.3,-999.0,50,-99.99,,,0.00,Acu-Link.com,2013-11-03 17:06:00,
2013-11-03 11:21:00,61.9,42.0,30.01,South,180,12.5,-999.0,48,-99.99,,,0.00,Acu-Link.com,2013-11-03 17:21:00,
2013-11-03 11:36:00,62.2,41.8,30.00,South,180,17.0,-999.0,47,-99.99,,,0.00,Acu-Link.com,2013-11-03 17:36:00,
2013-11-03 11:51:00,62.4,41.9,29.99,South,180,13.4,-999.0,47,-99.99,,,0.00,Acu-Link.com,2013-11-03 17:51:00,
2013-11-03 12:06:00,63.7,41.9,29.96,South,180,13.0,-999.0,45,-99.99,,,0.00,Acu-Link.com,2013-11-03 18:06:00,
2013-11-03 12:21:00,64.2,40.6,29.95,South,180,11.0,-999.0,42,-99.99,,,0.00,Acu-Link.com,2013-11-03 18:21:00,
2013-11-03 12:36:00,64.4,40.8,29.95,South,180,9.8,-999.0,42,-99.99,,,0.00,Acu-Link.com,2013-11-03 18:36:00,
2013-11-03 12:51:00,64.6,39.7,29.94,South,180,15.0,-999.0,40,-99.99,,,0.00,Acu-Link.com,2013-11-03 18:51:00,
2013-11-03 13:06:00,66.4,40.0,29.91,SSW,202,14.5,-999.0,38,-99.99,,,0.00,Acu-Link.com,2013-11-03 19:06:00,
2013-11-03 13:21:00,66.9,40.5,29.91,SSW,202,16.6,-999.0,38,-99.99,,,0.00,Acu-Link.com,2013-11-03 19:21:00,
2013-11-03 13:37:00,66.7,40.3,29.89,SSE,157,14.5,-999.0,38,-99.99,,,0.00,Acu-Link.com,2013-11-03 19:37:00,
2013-11-03 13:52:00,67.8,41.3,29.89,SSW,202,13.4,-999.0,38,-99.99,,,0.00,Acu-Link.com,2013-11-03 19:52:00,
2013-11-03 14:07:00,67.1,40.6,29.89,South,180,18.1,-999.0,38,-99.99,,,0.00,Acu-Link.com,2013-11-03 20:07:00,
2013-11-03 14:22:00,66.9,41.1,29.89,SSW,202,16.6,-999.0,39,-99.99,,,0.06,Acu-Link.com,2013-11-03 20:22:00,
2013-11-03 14:37:00,67.1,40.6,29.89,South,180,18.6,-999.0,38,-99.99,,,0.06,Acu-Link.com,2013-11-03 20:37:00,
2013-11-03 14:52:00,67.3,42.1,29.87,SSW,202,17.7,-999.0,40,-99.99,,,0.06,Acu-Link.com,2013-11-03 20:52:00,
2013-11-03 15:07:00,65.8,40.8,29.86,SSW,202,15.0,-999.0,40,-99.99,,,0.10,Acu-Link.com,2013-11-03 21:07:00,
2013-11-03 15:22:00,65.5,41.2,29.84,South,180,14.1,-999.0,41,-99.99,,,0.10,Acu-Link.com,2013-11-03 21:22:00,
2013-11-03 15:37:00,65.3,41.6,29.84,SSE,157,10.3,-999.0,42,-99.99,,,0.10,Acu-Link.com,2013-11-03 21:37:00,
2013-11-03 15:53:00,65.3,41.6,29.84,SSW,202,13.4,-999.0,42,-99.99,,,0.10,Acu-Link.com,2013-11-03 21:53:00,
2013-11-03 16:08:00,65.7,41.9,29.83,SSE,157,8.3,-999.0,42,-99.99,,,0.10,Acu-Link.com,2013-11-03 22:08:00,
2013-11-03 16:23:00,64.8,41.7,29.84,South,180,12.5,-999.0,43,-99.99,,,0.10,Acu-Link.com,2013-11-03 22:23:00,
2013-11-03 16:38:00,64.6,42.2,29.84,South,180,12.5,-999.0,44,-99.99,,,0.10,Acu-Link.com,2013-11-03 22:38:00,
2013-11-03 16:53:00,64.2,41.8,29.84,South,180,16.6,-999.0,44,-99.99,,,0.10,Acu-Link.com,2013-11-03 22:53:00,
2013-11-03 17:08:00,64.0,42.3,29.84,SSW,202,9.8,-999.0,45,-99.99,,,0.10,Acu-Link.com,2013-11-03 23:08:00,
2013-11-03 17:23:00,63.7,42.5,29.84,South,180,9.4,-999.0,46,-99.99,,,0.10,Acu-Link.com,2013-11-03 23:23:00,
2013-11-03 17:38:00,63.1,42.6,29.83,SE,135,7.8,-999.0,47,-99.99,,,0.10,Acu-Link.com,2013-11-03 23:38:00,
2013-11-03 17:53:00,62.2,42.8,29.85,SE,135,11.9,-999.0,49,-99.99,,,0.10,Acu-Link.com,2013-11-03 23:53:00,
2013-11-03 18:09:00,61.3,43.1,29.84,SSE,157,10.3,-999.0,51,-99.99,,,0.10,Acu-Link.com,2013-11-04 00:09:00,
2013-11-03 18:24:00,60.6,43.4,29.85,SSE,157,10.3,-999.0,53,-99.99,,,0.10,Acu-Link.com,2013-11-04 00:24:00,
2013-11-03 18:39:00,60.3,43.1,29.85,ESE,112,9.4,-999.0,53,-99.99,,,0.10,Acu-Link.com,2013-11-04 00:39:00,
2013-11-03 18:54:00,59.9,43.2,29.87,SSE,157,11.4,-999.0,54,-99.99,,,0.10,Acu-Link.com,2013-11-04 00:54:00,
2013-11-03 19:09:00,59.7,43.0,29.87,SSE,157,15.0,-999.0,54,-99.99,,,0.10,Acu-Link.com,2013-11-04 01:09:00,
2013-11-03 19:24:00,59.4,43.2,29.86,SSE,157,12.5,-999.0,55,-99.99,,,0.10,Acu-Link.com,2013-11-04 01:24:00,
2013-11-03 19:39:00,59.2,44.0,29.86,SSE,157,11.0,-999.0,57,-99.99,,,0.10,Acu-Link.com,2013-11-04 01:39:00,
2013-11-03 19:54:00,59.0,44.2,29.86,SSE,157,9.4,-999.0,58,-99.99,,,0.10,Acu-Link.com,2013-11-04 01:54:00,
2013-11-03 20:09:00,58.8,44.5,29.86,SSE,157,11.0,-999.0,59,-99.99,,,0.10,Acu-Link.com,2013-11-04 02:09:00,
2013-11-03 20:25:00,58.6,44.8,29.85,SSE,157,14.1,-999.0,60,-99.99,,,0.10,Acu-Link.com,2013-11-04 02:25:00,
2013-11-03 20:40:00,58.8,45.8,29.86,South,180,9.4,-999.0,62,-99.99,,,0.10,Acu-Link.com,2013-11-04 02:40:00,
2013-11-03 20:55:00,57.4,48.1,29.85,SE,135,11.0,-999.0,71,-99.99,,,0.10,Acu-Link.com,2013-11-04 02:55:00,
2013-11-03 21:10:00,56.8,49.0,29.86,SE,135,9.4,-999.0,75,-99.99,,,0.11,Acu-Link.com,2013-11-04 03:10:00,
2013-11-03 21:25:00,57.2,48.6,29.86,SSE,157,11.4,-999.0,73,-99.99,,,0.13,Acu-Link.com,2013-11-04 03:25:00,
2013-11-03 21:40:00,57.0,48.5,29.86,SE,135,10.3,-999.0,73,-99.99,,,0.13,Acu-Link.com,2013-11-04 03:40:00,
2013-11-03 21:55:00,56.1,50.0,29.86,SSE,157,9.8,-999.0,80,-99.99,,,0.13,Acu-Link.com,2013-11-04 03:55:00,
2013-11-03 22:10:00,56.3,50.2,29.86,South,180,8.3,-999.0,80,-99.99,,,0.13,Acu-Link.com,2013-11-04 04:10:00,
2013-11-03 22:25:00,56.1,50.0,29.85,South,180,9.4,-999.0,80,-99.99,,,0.13,Acu-Link.com,2013-11-04 04:25:00,
2013-11-03 22:41:00,57.2,48.6,29.87,SSE,157,11.0,-999.0,73,-99.99,,,0.13,Acu-Link.com,2013-11-04 04:41:00,
2013-11-03 22:56:00,57.4,48.8,29.86,South,180,8.3,-999.0,73,-99.99,,,0.13,Acu-Link.com,2013-11-04 04:56:00,
2013-11-03 23:11:00,57.2,48.3,29.85,SSE,157,7.8,-999.0,72,-99.99,,,0.13,Acu-Link.com,2013-11-04 05:11:00,
2013-11-03 23:26:00,56.8,48.6,29.87,South,180,8.3,-999.0,74,-99.99,,,0.13,Acu-Link.com,2013-11-04 05:26:00,
2013-11-03 23:41:00,56.1,48.7,29.87,SSE,157,11.0,-999.0,76,-99.99,,,0.13,Acu-Link.com,2013-11-04 05:41:00,
2013-11-03 23:56:00,56.8,49.0,29.87,South,180,12.5,-999.0,75,-99.99,,,0.13,Acu-Link.com,2013-11-04 05:56:00,